Regional Weather Roundup
Issued by NWS Goodland, KS

Home | Current Version | Previous Version | Graphics & Text | Print | Product List | Glossary On
Versions: 1 2 3 4 5 6 7 8 9 10 11 12 13 14 15 16 17 18 19 20 21 22 23 24 25 26 27 28 29 30 31 32 33 34 35 36 37 38 39 40 41 42 43 44 45 46 47 48 49 50
000
ASUS43 KGLD 201159
RWRGLD

GOODLAND FORECAST AREA HOURLY WEATHER ROUNDUP
NATIONAL WEATHER SERVICE GOODLAND KS
600 AM MDT FRI APR 20 2018

...OFFICIAL OBSERVATIONS...

CITY           SKY/WX    TMP DP  RH WIND       PRES   REMARKS
GOODLAND KS    CLOUDY    41  29  62 S29G36    30.10F
HILL CITY KS   PTCLDY    43  28  55 SE12      30.25S
IMPERIAL NEB   CLOUDY    40  28  62 E17G26    30.16R
MCCOOK NEB     CLOUDY    42  27  55 SE14G20   30.21F
AKRON CO       CLOUDY    40  27  59 SE28G37   30.00R
BURLINGTON CO  CLOUDY    40  28  62 SE26G35   30.07S
LIMON CO       PTCLDY    34  25  69 SE17      29.98F
$$

...UNOFFICIAL OBSERVATIONS...

CITY           SKY/WX    TMP DP  RH WIND       PRES   REMARKS
NORTON KS      CLOUDY    41  28  60 SE10      30.24
KIT CARSON CO    N/A     40  27  59 MISG        N/A
YUMA CO        FAIR      37  28  70 SE17      30.05R
$$



USA.gov is the U.S. government's official web portal to all federal, state and local government web resources and services.